Midland, MI

2:47 AM EST on December 16, 2017 (GMT -0500)
Barstow

Weather History for KIKW - March, 2014

Change the Weather History Date:

Saturday, March 29, 2014

  Actual Average (KMBS) Record (KMBS)
Temperature  
Mean Temperature 33 °F -  
Max Temperature 36 °F 46 °F 67 °F (1998)
Min Temperature 30 °F 30 °F 18 °F (2011)
Degree Days  
Heating Degree Days 32    
Moisture  
Dew Point 25 °F    
Average Humidity 74    
Maximum Humidity 88    
Minimum Humidity 67    
Precipitation  
Precipitation 0.00 in - - ()
Sea Level Pressure  
Sea Level Pressure 30.21 in    
Wind  
Wind Speed 5 mph (NE)    
Max Wind Speed 14 mph    
Max Gust Speed 18 mph    
Visibility 10 miles    
Events      
Averages and records for this station are not official NWS values.
T = Trace of Precipitation, MM = Missing Value Source: NWS Daily Summary

Daily Weather History Graph

Daily Weather History Graph

Search for Another Location

Airport or City:

Trip Planner

Search our weather history database for the weather conditions in past years. The results will help you decide how hot, cold, wet, or windy it might be!

Date:

Astronomy

Mar. 29, 2014 Rise Set
Actual Time 7:24 AM EDT 8:00 PM EDT
Civil Twilight 6:55 AM EDT 8:29 PM EDT
Nautical Twilight 6:21 AM EDT 9:03 PM EDT
Astronomical Twilight 5:45 AM EDT 9:38 PM EDT
Moon 6:34 AM EDT (3/29) 7:03 PM EDT (3/29)
Length of Visible Light 13h 33m
Length of Day
12h 36m
Waning Crescent, 2% of the Moon is Illuminated
Mar 29
Waning Crescent
Mar 30
New
Apr 7
First Quarter
Apr 15
Full
Apr 22
Last Quarter

Hourly Weather History & Observations

Time (EDT) Temp. Windchill Dew Point Humidity Pressure Visibility Wind Dir Wind Speed Gust Speed Precip Events Conditions
12:14 AM 30.9 °F - 24.8 °F 78% 30.19 in 10.0 mi Calm Calm - N/A   Clear
12:33 AM 31.1 °F - 24.6 °F 77% 30.18 in 10.0 mi Calm Calm - N/A   Clear
12:54 AM 30.6 °F 27.1 °F 24.8 °F 79% 30.19 in 10.0 mi East 3.5 mph - N/A   Clear
1:14 AM 30.2 °F - 24.4 °F 79% 30.20 in 10.0 mi Calm Calm - N/A   Clear
1:33 AM 30.0 °F - 27.0 °F 88% 30.20 in 10.0 mi Calm Calm - N/A   Mostly Cloudy
1:54 AM 31.1 °F 27.7 °F 26.2 °F 82% 30.20 in 10.0 mi North 3.5 mph - N/A   Overcast
2:13 AM 32.0 °F 28.7 °F 25.7 °F 78% 30.20 in 10.0 mi North 3.5 mph - N/A   Overcast
2:33 AM 32.0 °F 28.7 °F 25.5 °F 77% 30.20 in 10.0 mi NNE 3.5 mph - N/A   Overcast
2:54 AM 32.4 °F 29.1 °F 25.2 °F 75% 30.21 in 10.0 mi NNE 3.5 mph - N/A   Overcast
3:13 AM 32.4 °F 27.9 °F 25.0 °F 74% 30.20 in 10.0 mi NNE 4.6 mph - N/A   Overcast
3:33 AM 32.4 °F 29.1 °F 25.2 °F 75% 30.21 in 10.0 mi NE 3.5 mph - N/A   Overcast
3:54 AM 32.4 °F - 25.5 °F 76% 30.22 in 10.0 mi Calm Calm - N/A   Overcast
4:13 AM 32.4 °F 26.9 °F 25.7 °F 76% 30.21 in 10.0 mi ENE 5.8 mph - N/A   Overcast
4:33 AM 32.5 °F 27.1 °F 25.3 °F 75% 30.22 in 10.0 mi East 5.8 mph - N/A   Overcast
4:54 AM 32.4 °F 26.0 °F 25.3 °F 75% 30.22 in 10.0 mi NE 6.9 mph - N/A   Overcast
5:13 AM 32.4 °F 26.9 °F 25.7 °F 76% 30.24 in 10.0 mi ENE 5.8 mph - N/A   Overcast
5:33 AM 32.4 °F 26.9 °F 25.7 °F 76% 30.23 in 10.0 mi ENE 5.8 mph - N/A   Overcast
5:54 AM 32.2 °F 27.7 °F 25.5 °F 76% 30.23 in 10.0 mi NNE 4.6 mph - N/A   Overcast
6:13 AM 32.0 °F 27.5 °F 25.7 °F 78% 30.23 in 10.0 mi NNE 4.6 mph - N/A   Overcast
6:33 AM 32.0 °F 26.4 °F 25.7 °F 78% 30.23 in 10.0 mi NNE 5.8 mph - N/A   Overcast
6:54 AM 32.0 °F 25.6 °F 24.8 °F 75% 30.23 in 10.0 mi NE 6.9 mph - N/A   Overcast
7:13 AM 32.0 °F 26.4 °F 24.8 °F 75% 30.22 in 10.0 mi NNE 5.8 mph - N/A   Overcast
7:33 AM 32.0 °F 25.6 °F 24.6 °F 74% 30.22 in 10.0 mi NE 6.9 mph - N/A   Overcast
7:54 AM 32.0 °F 27.5 °F 24.8 °F 75% 30.23 in 10.0 mi NE 4.6 mph - N/A   Overcast
8:13 AM 32.0 °F 26.4 °F 24.8 °F 75% 30.23 in 10.0 mi NNE 5.8 mph - N/A   Overcast
8:34 AM 32.0 °F 26.4 °F 24.8 °F 75% 30.22 in 10.0 mi NNE 5.8 mph - N/A   Overcast
8:54 AM 32.0 °F 26.4 °F 25.2 °F 76% 30.22 in 10.0 mi NNE 5.8 mph - N/A   Overcast
9:13 AM 32.0 °F 24.8 °F 25.5 °F 77% 30.23 in 10.0 mi NE 8.1 mph - N/A   Mostly Cloudy
9:33 AM 32.4 °F 26.9 °F 25.7 °F 76% 30.23 in 10.0 mi NNE 5.8 mph - N/A   Scattered Clouds
9:52 AM 32.4 °F 26.0 °F 25.7 °F 76% 30.24 in 10.0 mi NE 6.9 mph - N/A   Mostly Cloudy
10:14 AM 32.9 °F 28.5 °F 26.2 °F 76% 30.24 in 10.0 mi NE 4.6 mph - N/A   Overcast
10:33 AM 33.3 °F 26.4 °F 26.4 °F 76% 30.23 in 10.0 mi NE 8.1 mph - N/A   Scattered Clouds
10:53 AM 33.8 °F 28.6 °F 26.8 °F 75% 30.22 in 10.0 mi NE 5.8 mph - N/A   Clear
11:14 AM 34.0 °F 26.6 °F 26.6 °F 74% 30.23 in 10.0 mi ENE 9.2 mph - N/A   Clear
11:33 AM 34.7 °F 28.8 °F 27.1 °F 74% 30.24 in 10.0 mi NE 6.9 mph - N/A   Scattered Clouds
11:54 AM 34.9 °F 28.3 °F 26.6 °F 72% 30.24 in 10.0 mi NNE 8.1 mph - N/A   Scattered Clouds
12:14 PM 34.9 °F 27.1 °F 26.2 °F 71% 30.24 in 10.0 mi NNE 10.4 mph - N/A   Mostly Cloudy
12:33 PM 35.1 °F 27.9 °F 25.9 °F 69% 30.24 in 10.0 mi NE 9.2 mph - N/A   Overcast
12:54 PM 35.6 °F 29.2 °F 26.4 °F 69% 30.23 in 10.0 mi NE 8.1 mph - N/A   Overcast
1:13 PM 35.8 °F 27.3 °F 26.2 °F 68% 30.23 in 10.0 mi ENE 12.7 mph - N/A   Overcast
1:33 PM 35.6 °F 26.6 °F 26.1 °F 68% 30.22 in 10.0 mi ENE 13.8 mph 18.4 mph N/A   Overcast
1:54 PM 35.2 °F 26.6 °F 27.1 °F 72% 30.21 in 10.0 mi ENE 12.7 mph - N/A   Overcast
2:13 PM 35.6 °F 28.6 °F 26.8 °F 70% 30.20 in 10.0 mi ENE 9.2 mph - N/A   Overcast
2:33 PM 35.2 °F 27.1 °F 25.9 °F 69% 30.20 in 10.0 mi ENE 11.5 mph - N/A   Overcast
2:53 PM 35.1 °F 27.9 °F 26.1 °F 70% 30.20 in 10.0 mi ENE 9.2 mph - N/A   Overcast
3:13 PM 35.1 °F 27.4 °F 26.4 °F 71% 30.18 in 10.0 mi ENE 10.4 mph - N/A   Overcast
3:34 PM 35.2 °F 28.1 °F 27.3 °F 73% 30.18 in 10.0 mi ENE 9.2 mph - N/A   Overcast
3:53 PM 35.8 °F 28.3 °F 27.1 °F 71% 30.17 in 10.0 mi NE 10.4 mph - N/A   Overcast
4:13 PM 35.6 °F 28.6 °F 26.8 °F 70% 30.16 in 10.0 mi NE 9.2 mph - N/A   Overcast
4:34 PM 36.0 °F 28.5 °F 27.5 °F 71% 30.16 in 10.0 mi ENE 10.4 mph - N/A   Overcast
4:53 PM 35.6 °F 29.2 °F 27.3 °F 72% 30.16 in 10.0 mi ENE 8.1 mph - N/A   Overcast
5:13 PM 36.1 °F 28.7 °F 27.0 °F 69% 30.16 in 10.0 mi ENE 10.4 mph - N/A   Scattered Clouds
5:34 PM 36.0 °F 29.0 °F 26.4 °F 68% 30.16 in 10.0 mi ENE 9.2 mph - N/A   Scattered Clouds
5:53 PM 35.6 °F 28.6 °F 27.0 °F 71% 30.16 in 10.0 mi East 9.2 mph - N/A   Scattered Clouds
6:13 PM 34.9 °F 28.3 °F 26.6 °F 72% 30.17 in 10.0 mi East 8.1 mph - N/A   Clear
6:34 PM 34.9 °F 26.6 °F 26.2 °F 71% 30.17 in 10.0 mi East 11.5 mph - N/A   Clear
6:53 PM 35.2 °F 28.8 °F 25.7 °F 68% 30.17 in 10.0 mi ENE 8.1 mph - N/A   Clear
7:13 PM 33.8 °F 25.3 °F 25.0 °F 70% 30.18 in 10.0 mi East 11.5 mph - N/A   Clear
7:33 PM 33.3 °F 25.7 °F 24.8 °F 71% 30.19 in 10.0 mi East 9.2 mph - N/A   Clear
7:53 PM 32.5 °F 24.2 °F 24.6 °F 73% 30.19 in 10.0 mi East 10.4 mph - N/A   Clear
8:14 PM 32.0 °F 24.2 °F 24.6 °F 74% 30.20 in 10.0 mi ENE 9.2 mph - N/A   Clear
8:33 PM 31.6 °F 25.1 °F 24.6 °F 75% 30.20 in 10.0 mi ENE 6.9 mph - N/A   Clear
8:53 PM 31.1 °F 25.4 °F 24.3 °F 76% 30.20 in 10.0 mi ENE 5.8 mph - N/A   Clear
9:14 PM 30.7 °F 26.0 °F 23.9 °F 76% 30.21 in 10.0 mi NE 4.6 mph - N/A   Clear
9:33 PM 30.7 °F 26.0 °F 23.7 °F 75% 30.21 in 10.0 mi NE 4.6 mph - N/A   Clear
9:53 PM 30.2 °F 25.4 °F 23.2 °F 75% 30.21 in 10.0 mi NE 4.6 mph - N/A   Clear
10:13 PM 30.9 °F 27.5 °F 23.0 °F 72% 30.22 in 10.0 mi NNE 3.5 mph - N/A   Clear
10:33 PM 30.2 °F 26.7 °F 22.6 °F 73% 30.22 in 10.0 mi NNE 3.5 mph - N/A   Clear
10:54 PM 30.2 °F 26.7 °F 22.1 °F 72% 30.21 in 10.0 mi NNE 3.5 mph - N/A   Clear
11:13 PM 30.9 °F 27.5 °F 21.2 °F 67% 30.21 in 10.0 mi NNE 3.5 mph - N/A   Clear
11:33 PM 30.4 °F 26.9 °F 20.5 °F 67% 30.21 in 10.0 mi North 3.5 mph - N/A   Clear
11:54 PM 30.2 °F - 20.3 °F 67% 30.21 in 10.0 mi Calm Calm - N/A   Clear